Date String (YYYY-MM-DD hh:mm:ss) UTC,Instrument flags,Ambient pressure (hPa),Sample flow (lpm),Bypass flow (lpm),Sample temperature (°C),Ambient temperature (°C),ASC tube jacket temperature (°C),LED temperature (°C),Box temperature (°C),Sample RH (%),Span deviation,Mass concentration (μg/m³),Mass concentration (μg/m³),Mass concentration (μg/m³)
DateTimeUTC,F1_M11,P_M11,Q1_M11,Q2_M11,T1_M11,T2_M11,T3_M11,T4_M11,T5_M11,U1_M11,ZSPAN_M11,X0_M11,X2_M11,X1_M11
2021-10-26 23:00:00,,0812.4,5.02,0.00,28.8,28.0,00.0,38.0,30.6,14.8,0000.0,0011.40,0001.47,0000.35
2021-10-26 23:01:00,,0812.4,5.01,0.00,28.8,28.0,00.0,37.9,30.6,15.1,0000.0,0011.65,0001.48,0000.36
2021-10-26 23:02:00,,0812.4,4.99,0.00,28.8,28.0,00.0,37.9,30.6,15.1,0000.0,0011.12,0001.52,0000.37
2021-10-26 23:03:00,,0812.4,5.00,0.00,28.8,28.0,00.0,37.9,30.6,14.8,0000.0,0011.34,0001.58,0000.38
2021-10-26 23:04:00,,0812.4,5.00,0.00,28.8,28.0,00.0,37.9,30.6,15.1,0000.0,0011.94,0001.67,0000.39
2021-10-26 23:05:00,,0812.4,5.01,0.00,28.8,27.9,00.0,37.9,30.6,15.1,0000.0,0011.34,0001.62,0000.38
2021-10-26 23:06:00,,0812.4,4.99,0.00,28.8,28.0,00.0,37.9,30.6,15.1,0000.0,0011.00,0001.61,0000.37
2021-10-26 23:07:00,,0812.5,5.00,0.00,28.8,28.0,00.0,37.9,30.5,15.2,0000.0,0011.87,0001.65,0000.37
2021-10-26 23:08:00,,0812.5,4.99,0.00,28.8,28.0,00.0,37.9,30.6,15.2,0000.0,0011.65,0001.68,0000.38
2021-10-26 23:09:00,,0812.5,5.01,0.00,28.8,28.0,00.0,37.9,30.6,15.2,0000.0,0011.72,0001.66,0000.38
2021-10-26 23:10:00,,0812.6,5.00,0.00,28.8,28.0,00.0,37.9,30.6,15.2,0000.0,0011.92,0001.65,0000.38
2021-10-26 23:11:00,,0812.7,4.99,0.00,28.8,28.0,00.0,37.9,30.6,15.3,0000.0,0011.44,0001.56,0000.36
2021-10-26 23:12:00,,0812.7,5.00,0.00,28.8,28.0,00.0,37.9,30.6,15.5,0000.0,0011.22,0001.54,0000.36
2021-10-26 23:13:00,,0812.7,5.01,0.00,28.8,28.0,00.0,37.9,30.6,15.7,0000.0,0010.98,0001.53,0000.37
2021-10-26 23:14:00,,0812.8,4.99,0.00,28.8,28.0,00.0,37.9,30.6,15.7,0000.0,0009.85,0001.52,0000.37
2021-10-26 23:15:00,,0812.8,5.00,0.00,28.8,28.0,00.0,37.9,30.6,15.5,0000.0,0008.61,0001.46,0000.37
2021-10-26 23:16:00,,0812.8,5.00,0.00,28.8,28.0,00.0,37.9,30.6,15.2,0000.0,0008.94,0001.54,0000.37
2021-10-26 23:17:00,,0812.9,4.99,0.00,28.8,28.0,00.0,37.9,30.6,15.2,0000.0,0008.94,0001.51,0000.37
2021-10-26 23:18:00,,0813.1,5.01,0.00,28.8,28.0,00.0,37.9,30.6,15.3,0000.0,0008.26,0001.45,0000.37
2021-10-26 23:19:00,,0813.4,5.00,0.00,28.8,28.0,00.0,37.9,30.6,15.3,0000.0,0007.75,0001.36,0000.36
2021-10-26 23:20:00,,0813.1,5.01,0.00,28.8,28.0,00.0,37.9,30.6,15.5,0000.0,0007.11,0001.33,0000.36
2021-10-26 23:21:00,,0813.1,5.00,0.00,28.8,28.0,00.0,37.9,30.5,15.6,0000.0,0007.88,0001.30,0000.38
2021-10-26 23:22:00,,0813.2,5.01,0.00,28.8,28.0,00.0,37.9,30.5,16.0,0000.0,0009.42,0001.33,0000.39
2021-10-26 23:23:00,,0813.2,5.00,0.00,28.8,28.0,00.0,37.9,30.5,16.3,0000.0,0010.46,0001.35,0000.39
2021-10-26 23:24:00,,0813.2,4.99,0.00,28.7,28.0,00.0,37.9,30.5,16.4,0000.0,0010.68,0001.28,0000.39
2021-10-26 23:25:00,,0813.3,5.00,0.00,28.7,28.0,00.0,37.9,30.5,16.3,0000.0,0010.56,0001.23,0000.39
2021-10-26 23:26:00,,0813.3,4.97,0.00,28.8,28.0,00.0,37.9,30.6,16.4,0000.0,0010.58,0001.27,0000.39
2021-10-26 23:27:00,,0813.3,5.01,0.00,28.8,28.0,00.0,37.9,30.6,16.5,0000.0,0010.25,0001.22,0000.40
2021-10-26 23:28:00,,0813.3,5.00,0.00,28.7,27.9,00.0,37.8,30.5,16.6,0000.0,0011.37,0001.21,0000.40
2021-10-26 23:29:00,,0813.4,5.02,0.00,28.7,27.9,00.0,37.8,30.5,16.7,0000.0,0010.99,0001.22,0000.42
2021-10-26 23:30:00,,0813.4,4.98,0.00,28.7,27.9,00.0,37.8,30.4,16.7,0000.0,0011.01,0001.24,0000.41
2021-10-26 23:31:00,,0813.4,5.01,0.00,28.6,27.8,00.0,37.8,30.4,16.7,0000.0,0010.92,0001.23,0000.41
2021-10-26 23:32:00,,0813.5,5.00,0.00,28.6,27.8,00.0,37.8,30.3,16.8,0000.0,0010.28,0001.25,0000.41
2021-10-26 23:33:00,,0813.5,5.01,0.00,28.6,27.8,00.0,37.8,30.3,16.8,0000.0,0009.12,0001.27,0000.41
2021-10-26 23:34:00,,0813.6,5.00,0.00,28.6,27.7,00.0,37.8,30.3,16.8,0000.0,0008.07,0001.28,0000.42
2021-10-26 23:35:00,,0814.0,4.99,0.00,28.5,27.7,00.0,37.8,30.2,16.7,0000.0,0007.92,0001.34,0000.42
2021-10-26 23:36:00,,0814.3,5.01,0.00,28.5,27.7,00.0,37.7,30.2,16.7,0000.0,0008.63,0001.33,0000.43
2021-10-26 23:37:00,,0813.9,4.99,0.00,28.5,27.7,00.0,37.7,30.2,16.7,0000.0,0008.74,0001.30,0000.43
2021-10-26 23:38:00,,0814.0,5.02,0.00,28.5,27.6,00.0,37.7,30.2,16.7,0000.0,0008.79,0001.29,0000.44
2021-10-26 23:39:00,,0813.9,5.01,0.00,28.4,27.6,00.0,37.7,30.2,16.7,0000.0,0008.09,0001.32,0000.44
2021-10-26 23:40:00,,0814.0,4.99,0.00,28.4,27.6,00.0,37.7,30.1,16.7,0000.0,0008.79,0001.35,0000.45
2021-10-26 23:41:00,,0814.0,5.01,0.00,28.4,27.6,00.0,37.7,30.1,16.8,0000.0,0009.19,0001.35,0000.47
2021-10-26 23:42:00,,0814.0,5.00,0.00,28.4,27.6,00.0,37.6,30.1,16.7,0000.0,0009.40,0001.34,0000.49
2021-10-26 23:43:00,,0814.0,5.00,0.00,28.4,27.6,00.0,37.6,30.1,16.7,0000.0,0009.61,0001.37,0000.51
2021-10-26 23:44:00,,0814.1,5.00,0.00,28.4,27.6,00.0,37.6,30.1,16.8,0000.0,0009.95,0001.33,0000.52
2021-10-26 23:45:00,,0814.2,4.99,0.00,28.4,27.6,00.0,37.6,30.1,17.0,0000.0,0010.56,0001.31,0000.52
2021-10-26 23:46:00,,0814.2,4.99,0.00,28.4,27.6,00.0,37.6,30.1,17.1,0000.0,0010.84,0001.31,0000.52
2021-10-26 23:47:00,,0814.2,5.01,0.00,28.4,27.6,00.0,37.6,30.1,17.3,0000.0,0010.20,0001.33,0000.53
2021-10-26 23:48:00,,0814.1,4.99,0.00,28.4,27.6,00.0,37.6,30.2,17.4,0000.0,0010.50,0001.36,0000.52
2021-10-26 23:49:00,,0814.0,5.00,0.00,28.4,27.6,00.0,37.6,30.2,17.4,0000.0,0010.90,0001.33,0000.53
2021-10-26 23:50:00,,0814.1,5.00,0.00,28.4,27.7,00.0,37.5,30.2,17.3,0000.0,0011.07,0001.37,0000.53
2021-10-26 23:51:00,,0814.1,4.98,0.00,28.4,27.7,00.0,37.5,30.2,17.4,0000.0,0010.59,0001.40,0000.53
2021-10-26 23:52:00,,0814.4,5.01,0.00,28.4,27.7,00.0,37.5,30.2,17.1,0000.0,0010.89,0001.45,0000.52
2021-10-26 23:53:00,,0814.4,5.00,0.00,28.4,27.7,00.0,37.5,30.2,17.3,0000.0,0011.00,0001.47,0000.51
2021-10-26 23:54:00,,0814.4,5.00,0.00,28.4,27.7,00.0,37.5,30.2,17.7,0000.0,0010.37,0001.40,0000.50
2021-10-26 23:55:00,,0814.5,5.00,0.00,28.4,27.7,00.0,37.5,30.2,18.0,0000.0,0010.11,0001.43,0000.49
2021-10-26 23:56:00,,0814.6,5.01,0.00,28.4,27.7,00.0,37.5,30.2,17.8,0000.0,0009.06,0001.47,0000.49
2021-10-26 23:57:00,,0814.5,5.01,0.00,28.4,27.6,00.0,37.5,30.2,17.6,0000.0,0008.62,0001.47,0000.50
2021-10-26 23:58:00,,0815.0,5.01,0.00,28.4,27.6,00.0,37.5,30.2,17.3,0000.0,0009.01,0001.50,0000.50
2021-10-26 23:59:00,,0814.6,5.01,0.00,28.4,27.6,00.0,37.5,30.2,17.1,0000.0,0009.61,0001.49,0000.51
